Weather History for KBAB - November, 2012

Change the Weather History Date:

Thursday, November 8, 2012

  Actual Average Record
Temperature  
Mean Temperature 51 °F -  
Max Temperature 59 °F 64 °F 75 °F (2001)
Min Temperature 42 °F 45 °F 37 °F (2011)
Degree Days  
Heating Degree Days 14    
Growing Degree Days 1 (Base 50)    
Moisture  
Dew Point 44 °F    
Average Humidity 78    
Maximum Humidity 99    
Minimum Humidity 42    
Precipitation  
Precipitation 0.03 in - - ()
Sea Level Pressure  
Sea Level Pressure 29.84 in    
Wind  
Wind Speed 16 mph (SSE)    
Max Wind Speed 20 mph    
Max Gust Speed 26 mph    
Visibility 10 miles    
Events Rain    
Averages and records for this station are not official NWS values.
T = Trace of Precipitation, MM = Missing Value Source: NWS Daily Summary

Daily Weather History Graph

Daily Weather History Graph

Search for Another Location

Airport or City:

Trip Planner

Search our weather history database for the weather conditions in past years. The results will help you decide how hot, cold, wet, or windy it might be!

Date:

Astronomy

Nov. 08, 2012 Rise Set
Actual Time 6:41 AM PST 4:56 PM PST
Civil Twilight 6:13 AM PST 5:25 PM PST
Nautical Twilight 5:41 AM PST 5:56 PM PST
Astronomical Twilight 5:10 AM PST 6:28 PM PST
Moon 12:45 AM PST (11/8) 1:38 PM PST (11/8)
Length of Visible Light 11h 11m
Length of Day
10h 15m
Waning Crescent, 32% of the Moon is Illuminated
Nov 8
Waning Crescent
Nov 13
New
Nov 20
First Quarter
Nov 28
Full
Dec 6
Last Quarter

Hourly Weather History & Observations

Time (PST) Temp. Windchill Dew Point Humidity Pressure Visibility Wind Dir Wind Speed Gust Speed Precip Events Conditions
12:58 AM 55.8 °F - 49.1 °F 78% 29.82 in 10.0 mi SSE 18.4 mph - N/A   Overcast
1:58 AM 54.5 °F - 48.2 °F 79% 29.82 in 10.0 mi SSE 16.1 mph - N/A   Clear
2:48 AM 53.6 °F - 48.2 °F 82% 29.80 in 10.0 mi SSE 18.4 mph 24.2 mph N/A   Mostly Cloudy
2:58 AM 54.0 °F - 48.7 °F 82% 29.80 in 10.0 mi SSE 17.3 mph - N/A   Mostly Cloudy
3:58 AM 53.6 °F - 48.0 °F 81% 29.80 in 10.0 mi SSE 19.6 mph - N/A   Overcast
4:03 AM 53.6 °F - 48.2 °F 82% 29.81 in 10.0 mi SSE 18.4 mph - N/A   Overcast
4:58 AM 51.6 °F - 46.9 °F 84% 29.81 in 10.0 mi SSE 17.3 mph - N/A   Partly Cloudy
5:58 AM 50.0 °F - 45.3 °F 84% 29.83 in 10.0 mi SSE 17.3 mph - N/A   Clear
6:58 AM 48.7 °F - 43.2 °F 81% 29.85 in 10.0 mi SSE 16.1 mph - N/A   Clear
7:58 AM 50.9 °F - 43.2 °F 75% 29.87 in 10.0 mi SSE 18.4 mph - N/A   Scattered Clouds
8:58 AM 52.7 °F - 42.3 °F 68% 29.88 in 10.0 mi SSE 19.6 mph 26.5 mph N/A   Overcast
9:58 AM 54.1 °F - 40.5 °F 60% 29.89 in 10.0 mi SSE 17.3 mph 26.5 mph N/A   Overcast
10:58 AM 58.3 °F - 37.8 °F 46% 29.89 in 10.0 mi SSE 19.6 mph 23.0 mph N/A   Overcast
11:56 AM 59.0 °F - 35.6 °F 42% 29.86 in 10.0 mi South 19.6 mph - N/A   Mostly Cloudy
12:23 PM 57.2 °F - 37.4 °F 48% 29.87 in 10.0 mi SSW 12.7 mph - N/A Rain Light Rain
12:50 PM 53.6 °F - 42.8 °F 67% 29.86 in 9.0 mi South 16.1 mph 23.0 mph N/A Rain Light Rain
12:58 PM 53.2 °F - 42.4 °F 67% 29.86 in 6.0 mi South 18.4 mph 23.0 mph 0.01 in Rain Light Rain
1:58 PM 52.2 °F - 45.9 °F 79% 29.84 in 9.0 mi SSW 11.5 mph - 0.02 in Rain Light Rain
2:11 PM 51.8 °F - 46.4 °F 82% 29.82 in 10.0 mi SSE 13.8 mph - N/A   Overcast
2:58 PM 52.3 °F - 48.0 °F 85% 29.83 in 10.0 mi South 15.0 mph - 0.00 in   Overcast
3:58 PM 52.5 °F - 46.9 °F 81% 29.82 in 10.0 mi SSE 17.3 mph - N/A   Scattered Clouds
4:58 PM 49.8 °F - 44.8 °F 83% 29.83 in 10.0 mi SSE 12.7 mph - N/A   Clear
5:58 PM 48.4 °F - 46.8 °F 94% 29.84 in 10.0 mi SE 9.2 mph - N/A   Scattered Clouds
6:58 PM 46.8 °F - 46.6 °F 99% 29.84 in 10.0 mi SSE 10.4 mph - N/A   Clear
7:58 PM 46.9 °F - 45.9 °F 96% 29.84 in 10.0 mi South 8.1 mph - N/A   Clear
8:58 PM 45.9 °F 41.7 °F 40.8 °F 83% 29.85 in 10.0 mi SE 8.1 mph - N/A   Partly Cloudy
9:58 PM 44.1 °F 39.5 °F 42.1 °F 93% 29.86 in 10.0 mi ESE 8.1 mph - N/A   Scattered Clouds
10:58 PM 43.5 °F 37.9 °F 41.4 °F 92% 29.87 in 10.0 mi SSE 10.4 mph - N/A   Scattered Clouds
11:58 PM 42.6 °F 36.8 °F 40.8 °F 93% 29.88 in 10.0 mi SSE 10.4 mph - N/A   Clear